SL-16 DEB, 39902

Orbit data source: Space-Track

SL-16 DEB, 39902 is space debris in LEO originally from a launch on Fri, 26 Mar 1993 UTC launched from the Tyuratam Missile And Space Complex (TTMTR). Debris objects in space refer to the collection of defunct objects orbiting the Earth. Examples of debris include non-operational satellites, rocket bodies, and fragments generated from explosions, collisions, or faulty payload assembly.

Loading next visibility...
Identifier
39902, 1993-016CC
Orbit
LEO
Country
Flag of CISCIS
Related business
Manufacturer
Unknown
Mission
Spacecraft
Bus & Motor
Unknown
Mass
Unknown
Launch date (UTC)
1993-03-26 (33 years ago)
Launch vehicle
Unknown
Launch site
Tyuratam Missile And Space Complex (TTMTR)
Object type
Payload
Rocket body
Debris
Shape & HBR
Unknown shape, 0.1 m
Radar Cross Section
Small (<0.1 m²)

Expand to show TLE details & history
Last TLE update: 23 hours ago

TLE from 23 hours ago
0 SL-16 DEB
1 39902U 93016CC  25294.99892453  .00000275  00000-0  29482-3 0  9995
2 39902  71.0067  18.6619 0188522 137.1787  42.5029 13.74484728570650
Epoch: 2025-10-21T23:58Z
TLE epoch observation values (Epoch: 2025-10-21T23:58:27.079Z)
Latitude
-1.21517°
Longitude
168.78636°
Altitude
884.923 km
Speed
7.461 km/s
True Right ascension
13h 16m 18s
True Declination
-1° 12' 29"
Sunlit
Object was in daylight at epoch
Visualization orbit readout
Latitude
Unknown
Longitude
Unknown
Altitude
Unknown
Speed
Unknown
Apparent Right ascension
Unknown
Apparent Declination
Unknown
Sunlit
N/A
Visualization observer readout
Local Sidereal Time
17:49:15
Azimuth
Unknown
Elevation
Unknown
Doppler factor
Unknown
Orbital elements
Apogee altitude
1,120.222 km
Perigee altitude
842.732 km
Semi-major axis
7,359.614 km
Eccentricity
0.01885
Inclination
71.0067°
RAAN
18.6619°
Arg. of periapsis
137.1787°
True anomaly
43.98808°
Mean anomaly
42.5029°
Eccentric anomaly
43.2429°
Mean motion
3.43764 °/min
Orbital period
104.72 mins
BSTAR
0.00029482
Loading maneuver chart data...
Computing Atmospheric mass density...
Loading historical data...
Loading historical data...
Loading historical data...
Loading historical data...
Loading historical data...
Loading historical data...
Loading historical data...

Documentation

Showing up to 5 results
|